Retour au catalogue

DELTA 4 R/B

ActifHEO
NORAD 36109·ROCKET BODY·🇺🇸 United States

Lancé Dec 6, 2009 depuis Cape Canaveral Space Force Station

Loading…

Prochains Passages (prochaines 24 heures)

TLE

FraisSource: Space-Track

Époque: Sep 14, 2026, 17:22 UTC

1 36109U 09068B   26257.72422737 -.00000193  00000-0  12006-2 0  9993
2 36109  22.5757 280.3468 8174934 225.4318  34.4567  1.19290353 72776

Suivez DELTA 4 R/B en temps réel avec AllMySat

Download on the App Store